Avoca, PA

3:11 AM EST on November 17, 2019 (GMT -0500)
Wilkes-Barre-Scranton International

Weather History for KAVP - September, 2019

Change the Weather History Date:

Friday, September 13, 2019

  Actual Average Record
Temperature  
Mean Temperature 63 °F 63 °F  
Max Temperature 66 °F 74 °F 92 °F (2005)
Min Temperature 60 °F 53 °F 37 °F (1985)
Degree Days  
Heating Degree Days 2 3  
Month to date heating degree days 7 30  
Since 1 July heating degree days 8 56  
Cooling Degree Days 0 2  
Month to date cooling degree days 52 35  
Year to date cooling degree days 791 559  
Growing Degree Days 13 (Base 50)    
Moisture  
Dew Point 52 °F    
Average Humidity 68    
Maximum Humidity 84    
Minimum Humidity 52    
Precipitation  
Precipitation 0.00 in 0.14 in 1.42 in (1944)
Month to date precipitation 0.54 1.67  
Year to date precipitation 38.20 26.70  
Sea Level Pressure  
Sea Level Pressure 30.37 in    
Wind  
Wind Speed 4 mph (East)    
Max Wind Speed 13 mph    
Max Gust Speed 21 mph    
Visibility 10 miles    
Events      
T = Trace of Precipitation, MM = Missing Value Source: NWS Daily Summary

Daily Weather History Graph

Daily Weather History Graph

Search for Another Location

Airport or City:

Astronomy

Sep. 13, 2019 Rise Set
Actual Time 6:41 AM EDT 7:15 PM EDT
Civil Twilight 6:13 AM EDT 7:43 PM EDT
Nautical Twilight 5:40 AM EDT 8:16 PM EDT
Astronomical Twilight 5:06 AM EDT 8:50 PM EDT
Moon 7:29 PM EDT (9/13) 5:54 AM EDT (9/13)
Length of Visible Light 13h 30m
Length of Day
12h 34m
Full, 100% of the Moon is Illuminated
Sep 13
Full
Sep 14
Full
Sep 21
Last Quarter
Sep 28
New
Oct 5
First Quarter

Hourly Weather History & Observations

Time (EDT) Temp. Dew Point Humidity Pressure Visibility Wind Dir Wind Speed Gust Speed Precip Events Conditions
12:02 AM 64.0 °F 57.9 °F 80% 30.28 in 10.0 mi ENE 4.6 mph - N/A   Overcast
12:34 AM 63.0 °F 57.0 °F 81% 30.29 in 10.0 mi East 6.9 mph - N/A   Overcast
12:41 AM 63.0 °F 55.9 °F 78% 30.29 in 10.0 mi Variable 4.6 mph - N/A   Overcast
12:54 AM 62.1 °F 55.9 °F 80% 30.28 in 10.0 mi ENE 5.8 mph - N/A   Overcast
1:32 AM 62.1 °F 55.0 °F 78% 30.31 in 10.0 mi Variable 4.6 mph - N/A   Overcast
1:54 AM 62.1 °F 55.0 °F 78% 30.30 in 10.0 mi ENE 4.6 mph - N/A   Overcast
2:54 AM 61.0 °F 55.0 °F 81% 30.30 in 10.0 mi ENE 4.6 mph - N/A   Overcast
3:54 AM 60.1 °F 54.0 °F 80% 30.32 in 10.0 mi Variable 5.8 mph - N/A   Overcast
4:54 AM 60.1 °F 53.1 °F 78% 30.33 in 10.0 mi Variable 4.6 mph - N/A   Overcast
6:54 AM 60.1 °F 51.1 °F 72% 30.38 in 10.0 mi Calm Calm - N/A   Overcast
7:54 AM 60.1 °F 51.1 °F 72% 30.40 in 10.0 mi Calm Calm - N/A   Overcast
8:54 AM 61.0 °F 48.9 °F 64% 30.42 in 10.0 mi North - - N/A   Overcast
9:54 AM 61.0 °F 46.9 °F 60% 30.43 in 10.0 mi East 5.8 mph - N/A   Overcast
10:54 AM 62.1 °F 46.9 °F 58% 30.42 in 10.0 mi ESE 10.4 mph 18.4 mph N/A   Overcast
11:54 AM 64.0 °F 46.9 °F 54% 30.42 in 10.0 mi Calm Calm - N/A   Overcast
12:54 PM 64.0 °F 48.9 °F 58% 30.42 in 10.0 mi SSE 9.2 mph - N/A   Overcast
1:54 PM 66.0 °F 48.9 °F 54% 30.41 in 10.0 mi Variable 5.8 mph - N/A   Overcast
2:54 PM 64.9 °F 51.1 °F 61% 30.40 in 10.0 mi Variable 6.9 mph - N/A   Overcast
3:54 PM 64.9 °F 51.1 °F 61% 30.40 in 10.0 mi Variable 3.5 mph - N/A   Overcast
4:54 PM 64.9 °F 52.0 °F 63% 30.40 in 10.0 mi Variable 3.5 mph - N/A   Overcast
5:54 PM 64.0 °F 52.0 °F 65% 30.40 in 10.0 mi Calm Calm - N/A   Overcast
6:54 PM 64.0 °F 53.1 °F 67% 30.38 in 10.0 mi Variable 5.8 mph - N/A   Overcast
7:54 PM 63.0 °F 51.1 °F 65% 30.38 in 10.0 mi Calm Calm - N/A   Overcast
8:54 PM 63.0 °F 51.1 °F 65% 30.38 in 10.0 mi Variable 5.8 mph - N/A   Overcast
9:54 PM 63.0 °F 50.0 °F 63% 30.38 in 10.0 mi Variable 3.5 mph - N/A   Overcast
10:54 PM 62.1 °F 50.0 °F 65% 30.36 in 10.0 mi Variable 5.8 mph - N/A   Overcast
11:54 PM 62.1 °F 50.0 °F 65% 30.36 in 10.0 mi Variable 4.6 mph - N/A   Overcast